Location: ??????
(38.0131°N, 23.7723°E)
Time: 18:07:34
(UTC+00:00)

METEOR 2-5 DEB - Pass Details

Date: 15 August 2022
Orbit: 809 x 849 km, 81.2° (Epoch: 29 September)

Event Time Altitude Azimuth Distance (km) Brightness Sun altitude
Rises 19:34:06 0° 349° (N) 3,353 ? -23.9°
Reaches altitude 10° 19:36:30 10° 348° (NNW) 2,412 ? -24.2°
Maximum altitude 19:41:56 77° 263° (W) 834 ? -25.0°
Enters shadow 19:43:05 56° 193° (SSW) 961 ? -25.1°
